Terug naar catalogus

STARLINK-37886

ActiefCommunicatieVLEO
NORAD 69943·PAYLOAD·🇺🇸 United States

Gelanceerd Jul 9, 2026 vanaf Cape Canaveral Space Force Station

Loading…

Volgende Passages (komende 24 uur)

TLE

VersSource: CelesTrak SupGP

Epoch: Sep 15, 2026, 04:02 UTC

1 69943C 26157A   26258.16854167  .00090638  00000+0  26755-2 0  2583
2 69943  53.1591 358.3162 0001317  82.4615 106.8660 15.34373930    19

Volg STARLINK-37886 in realtime met AllMySat

Download on the App Store